STARLINK-34381, 64282

Orbit data source: Space-Track

STARLINK-34381, 64282 is a payload satellite owned by SpaceX/Seattle (US) in LEO that was launched on Wed, 04 Jun 2025 UTC via an FALCON 9 launch vehicle from the Air Force Western Test Range (AFWTR). Payload-class satellites include a variety of spacecraft equipped with specific instruments for various scientific and technological missions. These include communications satellites like Starlink; space stations such as the ISS; scientific satellites like the Hubble; Earth observation satellites from companies like Planet Labs, Umbra, and HawkEye 360; GPS; miniature CubeSats for education and research; and military/defense satellites.

Loading next visibility...
Identifier
64282, 2025-120AC
Orbit
LEO
Country
Flag of USUS
Related business
Manufacturer
SpaceX/Seattle
Mission
Operational Commercial Communications
Bus & Motor
STARLINK V2MO, Unknown motor
Mass
575 kg wet, ~530 kg dry
Launch date (UTC)
2025-06-04 (1 year ago)
Launch vehicle
FALCON 9
Launch site
Air Force Western Test Range (AFWTR)
Object type
Payload
Rocket body
Debris
Shape & HBR
Box + 2 Pan, 17.7 m
Radar Cross Section
36.964 m², Large (>1 m²)

Expand to show TLE details & history
Last TLE update: 1 day ago

TLE from 1 day ago
0 STARLINK-34381
1 64282U 25120AC  26170.76946921  .00014996  00000-0  51749-3 0  9990
2 64282  53.1600   2.6357 0001209  92.8925 267.2214 15.30195721 59528
Epoch: 2026-06-19T18:28Z
TLE epoch observation values (Epoch: 2026-06-19T18:28:02.139Z)
Latitude
-0.00004°
Longitude
177.63306°
Altitude
476.168 km
Speed
7.629 km/s
True Right ascension
00h 10m 32s
True Declination
0° 00' 00"
Sunlit
Object was in daylight at epoch
Visualization orbit readout
Latitude
Unknown
Longitude
Unknown
Altitude
Unknown
Speed
Unknown
Apparent Right ascension
Unknown
Apparent Declination
Unknown
Sunlit
N/A
Visualization observer readout
Local Sidereal Time
07:12:28
Azimuth
Unknown
Elevation
Unknown
Doppler factor
Unknown
Orbital elements
Apogee altitude
476.313 km
Perigee altitude
474.656 km
Semi-major axis
6,853.621 km
Eccentricity
0.00012
Inclination
53.16°
RAAN
2.6357°
Arg. of periapsis
92.8925°
True anomaly
267.20756°
Mean anomaly
267.2214°
Eccentric anomaly
267.21448°
Mean motion
3.82528 °/min
Orbital period
94.11 mins
BSTAR
0.00051749
Loading maneuver chart data...
Computing Atmospheric mass density...
Loading historical data...
Loading historical data...
Loading historical data...
Loading historical data...
Loading historical data...
Loading historical data...
Loading historical data...

Documentation

Showing up to 5 results
|